International Skating Union - Official Site

Essent ISU World Cup Hamar
November 27-28, 2010

Draw | Lap Times | Index | World Cup

Referee: Knut Arthur  OLSEN  (NOR)
Starter: Trond  RATDAL  (NOR)
StartTime: EndTime: Air Temp: Ice Temp: Humidity:
10:15 12:09 15.8℃ -10.1℃ 15%
Result 10000m Men Division B
Rankings as of Nov 28 2010 12:55PM
Rank: No.: Name: Nation: Time: Behind: Points:
1 54 Shane  DOBBIN NZL NZL 13:19.53400m - 35.63 - (35.6)
800m - 1:07.25 - (31.6)
1200m - 1:39.42 - (32.1)
1600m - 2:11.38 - (31.9)
2000m - 2:43.38 - (32.0)
2400m - 3:15.46 - (32.0)
2800m - 3:47.54 - (32.0)
3200m - 4:19.55 - (32.0)
3600m - 4:51.43 - (31.8)
4000m - 5:23.32 - (31.8)
4400m - 5:55.06 - (31.7)
4800m - 6:27.08 - (32.0)
5200m - 6:59.03 - (31.9)
5600m - 7:30.95 - (31.9)
6000m - 8:02.79 - (31.8)
6400m - 8:34.51 - (31.7)
6800m - 9:06.20 - (31.6)
7200m - 9:38.44 - (32.2)
7600m - 10:10.39 - (31.9)
8000m - 10:41.77 - (31.3)
8400m - 11:13.38 - (31.6)
8800m - 11:44.85 - (31.4)
9200m - 12:16.45 - (31.6)
9600m - 12:47.94 - (31.4)
10000m - 13:19.53 - (31.5)
35
2 48 Henrik  CHRISTIANSEN NOR NOR 13:21.29400m - 35.51 - (35.5)
800m - 1:07.51 - (32.0)
1200m - 1:39.53 - (32.0)
1600m - 2:11.81 - (32.2)
2000m - 2:44.01 - (32.2)
2400m - 3:16.34 - (32.3)
2800m - 3:48.54 - (32.2)
3200m - 4:20.34 - (31.8)
3600m - 4:52.42 - (32.0)
4000m - 5:24.27 - (31.8)
4400m - 5:56.09 - (31.8)
4800m - 6:28.00 - (31.9)
5200m - 6:59.60 - (31.6)
5600m - 7:31.24 - (31.6)
6000m - 8:02.78 - (31.5)
6400m - 8:35.02 - (32.2)
6800m - 9:07.39 - (32.3)
7200m - 9:39.40 - (32.0)
7600m - 10:11.90 - (32.5)
8000m - 10:44.14 - (32.2)
8400m - 11:15.71 - (31.5)
8800m - 11:47.07 - (31.3)
9200m - 12:18.48 - (31.4)
9600m - 12:49.68 - (31.2)
10000m - 13:21.29 - (31.6)
1.76 30
3 61 Aleksandr  RUMYANTSEV RUS RUS 13:33.18400m - 35.22 - (35.2)
800m - 1:06.77 - (31.5)
1200m - 1:38.60 - (31.8)
1600m - 2:10.96 - (32.3)
2000m - 2:43.25 - (32.2)
2400m - 3:15.60 - (32.3)
2800m - 3:47.89 - (32.2)
3200m - 4:20.17 - (32.2)
3600m - 4:52.35 - (32.1)
4000m - 5:24.48 - (32.1)
4400m - 5:56.51 - (32.0)
4800m - 6:28.54 - (32.0)
5200m - 7:00.78 - (32.2)
5600m - 7:33.20 - (32.4)
6000m - 8:05.69 - (32.4)
6400m - 8:38.22 - (32.5)
6800m - 9:10.83 - (32.6)
7200m - 9:43.78 - (32.9)
7600m - 10:16.38 - (32.6)
8000m - 10:49.09 - (32.7)
8400m - 11:21.69 - (32.6)
8800m - 11:54.36 - (32.6)
9200m - 12:26.90 - (32.5)
9600m - 12:59.83 - (32.9)
10000m - 13:33.18 - (33.3)
13.65 25
4 35 Ted-Jan  BLOEMEN NED NED 13:33.49400m - 34.66 - (34.6)
800m - 1:05.61 - (30.9)
1200m - 1:36.93 - (31.3)
1600m - 2:08.16 - (31.2)
2000m - 2:39.27 - (31.1)
2400m - 3:10.53 - (31.2)
2800m - 3:41.65 - (31.1)
3200m - 4:12.67 - (31.0)
3600m - 4:44.09 - (31.4)
4000m - 5:15.89 - (31.8)
4400m - 5:47.51 - (31.6)
4800m - 6:19.42 - (31.9)
5200m - 6:52.31 - (32.8)
5600m - 7:25.35 - (33.0)
6000m - 7:58.53 - (33.1)
6400m - 8:32.08 - (33.5)
6800m - 9:05.33 - (33.2)
7200m - 9:39.19 - (33.8)
7600m - 10:13.55 - (34.3)
8000m - 10:47.33 - (33.7)
8400m - 11:21.31 - (33.9)
8800m - 11:55.47 - (34.1)
9200m - 12:28.39 - (32.9)
9600m - 13:00.84 - (32.4)
10000m - 13:33.49 - (32.6)
13.96 21
5 14 Patrick  BECKERT GER GER 13:37.30400m - 36.87 - (36.8)
800m - 1:09.56 - (32.6)
1200m - 1:42.36 - (32.8)
1600m - 2:15.45 - (33.0)
2000m - 2:48.70 - (33.2)
2400m - 3:21.57 - (32.8)
2800m - 3:54.79 - (33.2)
3200m - 4:27.54 - (32.7)
3600m - 5:00.89 - (33.3)
4000m - 5:33.96 - (33.0)
4400m - 6:06.99 - (33.0)
4800m - 6:40.03 - (33.0)
5200m - 7:13.27 - (33.2)
5600m - 7:45.88 - (32.6)
6000m - 8:18.26 - (32.3)
6400m - 8:50.62 - (32.3)
6800m - 9:22.82 - (32.2)
7200m - 9:55.35 - (32.5)
7600m - 10:27.78 - (32.4)
8000m - 11:00.36 - (32.5)
8400m - 11:32.37 - (32.0)
8800m - 12:04.21 - (31.8)
9200m - 12:35.90 - (31.6)
9600m - 13:06.94 - (31.0)
10000m - 13:37.30 - (30.3)
17.77 18
6 63 Roger  SCHNEIDER SUI SUI 13:38.85400m - 37.15 - (37.1)
800m - 1:10.09 - (32.9)
1200m - 1:42.63 - (32.5)
1600m - 2:15.57 - (32.9)
2000m - 2:48.56 - (32.9)
2400m - 3:21.74 - (33.1)
2800m - 3:54.87 - (33.1)
3200m - 4:27.89 - (33.0)
3600m - 5:00.96 - (33.0)
4000m - 5:34.45 - (33.4)
4400m - 6:07.79 - (33.3)
4800m - 6:40.75 - (32.9)
5200m - 7:14.32 - (33.5)
5600m - 7:47.76 - (33.4)
6000m - 8:20.77 - (33.0)
6400m - 8:53.39 - (32.6)
6800m - 9:25.78 - (32.3)
7200m - 9:57.83 - (32.0)
7600m - 10:29.75 - (31.9)
8000m - 11:01.24 - (31.4)
8400m - 11:32.20 - (30.9)
8800m - 12:03.51 - (31.3)
9200m - 12:35.27 - (31.7)
9600m - 13:07.18 - (31.9)
10000m - 13:38.85 - (31.6)
19.32 15
7 19 Marco  WEBER GER GER 13:42.28400m - 36.05 - (36.0)
800m - 1:08.13 - (32.0)
1200m - 1:40.46 - (32.3)
1600m - 2:12.72 - (32.2)
2000m - 2:45.15 - (32.4)
2400m - 3:17.94 - (32.7)
2800m - 3:50.70 - (32.7)
3200m - 4:23.17 - (32.4)
3600m - 4:55.91 - (32.7)
4000m - 5:28.95 - (33.0)
4400m - 6:01.84 - (32.8)
4800m - 6:34.91 - (33.0)
5200m - 7:07.49 - (32.5)
5600m - 7:40.14 - (32.6)
6000m - 8:12.72 - (32.5)
6400m - 8:45.67 - (32.9)
6800m - 9:18.63 - (32.9)
7200m - 9:51.81 - (33.1)
7600m - 10:24.59 - (32.7)
8000m - 10:57.61 - (33.0)
8400m - 11:30.60 - (32.9)
8800m - 12:03.66 - (33.0)
9200m - 12:36.65 - (32.9)
9600m - 13:09.76 - (33.1)
10000m - 13:42.28 - (32.5)
22.75 13
8 50 Fredrik  VAN DER HORST NOR NOR 13:44.49400m - 36.14 - (36.1)
800m - 1:09.43 - (33.2)
1200m - 1:43.11 - (33.6)
1600m - 2:16.53 - (33.4)
2000m - 2:49.79 - (33.2)
2400m - 3:22.96 - (33.1)
2800m - 3:56.15 - (33.1)
3200m - 4:29.20 - (33.0)
3600m - 5:02.56 - (33.3)
4000m - 5:35.87 - (33.3)
4400m - 6:09.11 - (33.2)
4800m - 6:42.18 - (33.0)
5200m - 7:15.27 - (33.0)
5600m - 7:47.95 - (32.6)
6000m - 8:20.63 - (32.6)
6400m - 8:52.98 - (32.3)
6800m - 9:25.73 - (32.7)
7200m - 9:58.43 - (32.7)
7600m - 10:31.17 - (32.7)
8000m - 11:03.27 - (32.1)
8400m - 11:35.43 - (32.1)
8800m - 12:07.64 - (32.2)
9200m - 12:40.01 - (32.3)
9600m - 13:12.09 - (32.0)
10000m - 13:44.49 - (32.4)
24.96 11
9 31 Artyom  BELOUSOV KAZ KAZ 13:46.94400m - 37.00 - (37.0)
800m - 1:10.22 - (33.2)
1200m - 1:43.68 - (33.4)
1600m - 2:16.69 - (33.0)
2000m - 2:49.62 - (32.9)
2400m - 3:22.61 - (32.9)
2800m - 3:55.40 - (32.7)
3200m - 4:28.01 - (32.6)
3600m - 5:00.82 - (32.8)
4000m - 5:33.59 - (32.7)
4400m - 6:06.30 - (32.7)
4800m - 6:38.77 - (32.4)
5200m - 7:11.39 - (32.6)
5600m - 7:44.00 - (32.6)
6000m - 8:16.20 - (32.2)
6400m - 8:48.47 - (32.2)
6800m - 9:21.28 - (32.8)
7200m - 9:54.12 - (32.8)
7600m - 10:27.44 - (33.3)
8000m - 11:00.59 - (33.1)
8400m - 11:33.97 - (33.3)
8800m - 12:07.04 - (33.0)
9200m - 12:40.40 - (33.3)
9600m - 13:13.70 - (33.3)
10000m - 13:46.94 - (33.2)
27.41 10
10 58 Jan  SZYMANSKI POL POL 13:49.13400m - 35.72 - (35.7)
800m - 1:06.85 - (31.1)
1200m - 1:39.19 - (32.3)
1600m - 2:11.99 - (32.8)
2000m - 2:44.37 - (32.3)
2400m - 3:16.93 - (32.5)
2800m - 3:49.58 - (32.6)
3200m - 4:22.33 - (32.7)
3600m - 4:55.24 - (32.9)
4000m - 5:28.00 - (32.7)
4400m - 6:01.06 - (33.0)
4800m - 6:34.19 - (33.1)
5200m - 7:07.48 - (33.2)
5600m - 7:40.09 - (32.6)
6000m - 8:12.99 - (32.9)
6400m - 8:45.79 - (32.8)
6800m - 9:19.00 - (33.2)
7200m - 9:52.47 - (33.4)
7600m - 10:25.96 - (33.4)
8000m - 10:59.58 - (33.6)
8400m - 11:33.24 - (33.6)
8800m - 12:07.27 - (34.0)
9200m - 12:41.55 - (34.2)
9600m - 13:15.49 - (33.9)
10000m - 13:49.13 - (33.6)
29.60 9
11 28 Norimasa  ZAIKE JPN JPN 13:52.58400m - 36.45 - (36.4)
800m - 1:08.82 - (32.3)
1200m - 1:41.22 - (32.4)
1600m - 2:13.46 - (32.2)
2000m - 2:46.11 - (32.6)
2400m - 3:18.76 - (32.6)
2800m - 3:51.66 - (32.9)
3200m - 4:24.60 - (32.9)
3600m - 4:57.92 - (33.3)
4000m - 5:31.18 - (33.2)
4400m - 6:04.78 - (33.6)
4800m - 6:38.44 - (33.6)
5200m - 7:11.90 - (33.4)
5600m - 7:45.15 - (33.2)
6000m - 8:18.49 - (33.3)
6400m - 8:51.70 - (33.2)
6800m - 9:25.31 - (33.6)
7200m - 9:59.03 - (33.7)
7600m - 10:32.42 - (33.3)
8000m - 11:05.53 - (33.1)
8400m - 11:38.38 - (32.8)
8800m - 12:11.94 - (33.5)
9200m - 12:46.06 - (34.1)
9600m - 13:19.30 - (33.2)
10000m - 13:52.58 - (33.2)
33.05 8
12 26 Shota  NAKAMURA JPN JPN 13:53.90400m - 35.53 - (35.5)
800m - 1:08.26 - (32.7)
1200m - 1:41.54 - (33.2)
1600m - 2:14.43 - (32.8)
2000m - 2:47.67 - (33.2)
2400m - 3:20.59 - (32.9)
2800m - 3:53.51 - (32.9)
3200m - 4:26.15 - (32.6)
3600m - 4:59.42 - (33.2)
4000m - 5:32.75 - (33.3)
4400m - 6:05.82 - (33.0)
4800m - 6:38.72 - (32.9)
5200m - 7:12.26 - (33.5)
5600m - 7:45.60 - (33.3)
6000m - 8:18.88 - (33.2)
6400m - 8:52.26 - (33.3)
6800m - 9:25.65 - (33.3)
7200m - 9:59.19 - (33.5)
7600m - 10:32.64 - (33.4)
8000m - 11:06.08 - (33.4)
8400m - 11:39.94 - (33.8)
8800m - 12:13.68 - (33.7)
9200m - 12:47.63 - (33.9)
9600m - 13:21.07 - (33.4)
10000m - 13:53.90 - (32.8)
34.37 7
13 18 Tobias  SCHNEIDER GER GER 13:55.07400m - 35.90 - (35.9)
800m - 1:09.01 - (33.1)
1200m - 1:42.47 - (33.4)
1600m - 2:15.28 - (32.8)
2000m - 2:48.31 - (33.0)
2400m - 3:21.09 - (32.7)
2800m - 3:53.75 - (32.6)
3200m - 4:26.33 - (32.5)
3600m - 4:59.31 - (32.9)
4000m - 5:32.90 - (33.5)
4400m - 6:06.09 - (33.1)
4800m - 6:38.94 - (32.8)
5200m - 7:11.95 - (33.0)
5600m - 7:45.35 - (33.4)
6000m - 8:18.38 - (33.0)
6400m - 8:51.56 - (33.1)
6800m - 9:24.78 - (33.2)
7200m - 9:58.40 - (33.6)
7600m - 10:31.97 - (33.5)
8000m - 11:05.45 - (33.4)
8400m - 11:39.33 - (33.8)
8800m - 12:13.23 - (33.9)
9200m - 12:47.01 - (33.7)
9600m - 13:21.37 - (34.3)
10000m - 13:55.07 - (33.6)
35.54 6
14 56 Slawomir  CHMURA POL POL 14:01.95400m - 36.12 - (36.1)
800m - 1:08.71 - (32.5)
1200m - 1:42.30 - (33.5)
1600m - 2:16.07 - (33.7)
2000m - 2:50.24 - (34.1)
2400m - 3:24.42 - (34.1)
2800m - 3:59.27 - (34.8)
3200m - 4:34.57 - (35.3)
3600m - 5:10.01 - (35.4)
4000m - 5:45.33 - (35.3)
4400m - 6:19.65 - (34.3)
4800m - 6:53.13 - (33.4)
5200m - 7:26.62 - (33.4)
5600m - 8:00.10 - (33.4)
6000m - 8:33.86 - (33.7)
6400m - 9:07.15 - (33.2)
6800m - 9:40.72 - (33.5)
7200m - 10:15.24 - (34.5)
7600m - 10:49.71 - (34.4)
8000m - 11:23.03 - (33.3)
8400m - 11:55.31 - (32.2)
8800m - 12:25.66 - (30.3)
9200m - 12:57.18 - (31.5)
9600m - 13:29.29 - (32.1)
10000m - 14:01.95 - (32.6)
42.42 5
15 16 Moritz  GEISREITER GER GER 14:02.05400m - 36.87 - (36.8)
800m - 1:09.67 - (32.8)
1200m - 1:43.32 - (33.6)
1600m - 2:16.43 - (33.1)
2000m - 2:49.59 - (33.1)
2400m - 3:22.44 - (32.8)
2800m - 3:55.49 - (33.0)
3200m - 4:28.26 - (32.7)
3600m - 5:01.64 - (33.3)
4000m - 5:35.16 - (33.5)
4400m - 6:08.72 - (33.5)
4800m - 6:42.01 - (33.2)
5200m - 7:15.26 - (33.2)
5600m - 7:48.84 - (33.5)
6000m - 8:22.50 - (33.6)
6400m - 8:56.26 - (33.7)
6800m - 9:30.24 - (33.9)
7200m - 10:04.51 - (34.2)
7600m - 10:38.70 - (34.1)
8000m - 11:12.64 - (33.9)
8400m - 11:46.55 - (33.9)
8800m - 12:20.57 - (34.0)
9200m - 12:54.77 - (34.2)
9600m - 13:28.76 - (33.9)
10000m - 14:02.05 - (33.3)
42.52 4
16 2 Lèo  LANDRY CAN CAN 14:02.41400m - 36.67 - (36.6)
800m - 1:09.86 - (33.1)
1200m - 1:43.14 - (33.2)
1600m - 2:16.90 - (33.7)
2000m - 2:50.05 - (33.1)
2400m - 3:23.35 - (33.3)
2800m - 3:56.37 - (33.0)
3200m - 4:29.64 - (33.2)
3600m - 5:02.67 - (33.0)
4000m - 5:35.99 - (33.3)
4400m - 6:08.94 - (32.9)
4800m - 6:42.18 - (33.2)
5200m - 7:15.26 - (33.0)
5600m - 7:48.46 - (33.2)
6000m - 8:21.86 - (33.4)
6400m - 8:55.95 - (34.0)
6800m - 9:29.40 - (33.4)
7200m - 10:03.00 - (33.6)
7600m - 10:36.63 - (33.6)
8000m - 11:10.81 - (34.1)
8400m - 11:44.98 - (34.1)
8800m - 12:19.57 - (34.5)
9200m - 12:53.93 - (34.3)
9600m - 13:28.27 - (34.3)
10000m - 14:02.41 - (34.1)
42.88 3
17 6 Justin  WARSYLEWICZ CAN CAN 14:02.47400m - 35.89 - (35.8)
800m - 1:08.93 - (33.0)
1200m - 1:41.81 - (32.8)
1600m - 2:14.94 - (33.1)
2000m - 2:48.14 - (33.2)
2400m - 3:21.20 - (33.0)
2800m - 3:54.24 - (33.0)
3200m - 4:27.36 - (33.1)
3600m - 5:00.62 - (33.2)
4000m - 5:33.84 - (33.2)
4400m - 6:06.94 - (33.1)
4800m - 6:40.29 - (33.3)
5200m - 7:13.81 - (33.5)
5600m - 7:47.24 - (33.4)
6000m - 8:20.67 - (33.4)
6400m - 8:54.45 - (33.7)
6800m - 9:28.40 - (33.9)
7200m - 10:02.48 - (34.0)
7600m - 10:36.69 - (34.2)
8000m - 11:10.83 - (34.1)
8400m - 11:45.07 - (34.2)
8800m - 12:19.69 - (34.6)
9200m - 12:54.35 - (34.6)
9600m - 13:28.54 - (34.1)
10000m - 14:02.47 - (33.9)
42.94 2
18 53 Tore  SOLLI NOR NOR 14:05.41400m - 36.70 - (36.7)
800m - 1:09.07 - (32.3)
1200m - 1:41.75 - (32.6)
1600m - 2:14.54 - (32.7)
2000m - 2:47.66 - (33.1)
2400m - 3:20.45 - (32.7)
2800m - 3:53.43 - (32.9)
3200m - 4:26.27 - (32.8)
3600m - 4:59.07 - (32.8)
4000m - 5:32.01 - (32.9)
4400m - 6:04.49 - (32.4)
4800m - 6:37.27 - (32.7)
5200m - 7:10.70 - (33.4)
5600m - 7:43.69 - (32.9)
6000m - 8:16.91 - (33.2)
6400m - 8:50.14 - (33.2)
6800m - 9:23.48 - (33.3)
7200m - 9:56.63 - (33.1)
7600m - 10:30.70 - (34.0)
8000m - 11:04.79 - (34.0)
8400m - 11:39.76 - (34.9)
8800m - 12:15.30 - (35.5)
9200m - 12:51.80 - (36.5)
9600m - 13:28.84 - (37.0)
10000m - 14:05.41 - (36.5)
45.88 1
19 1 Joshua  LOSE AUS AUS 14:07.61400m - 37.08 - (37.0)
800m - 1:09.20 - (32.1)
1200m - 1:42.33 - (33.1)
1600m - 2:15.78 - (33.4)
2000m - 2:49.30 - (33.5)
2400m - 3:22.61 - (33.3)
2800m - 3:55.95 - (33.3)
3200m - 4:29.34 - (33.3)
3600m - 5:02.83 - (33.4)
4000m - 5:36.06 - (33.2)
4400m - 6:09.41 - (33.3)
4800m - 6:42.77 - (33.3)
5200m - 7:16.11 - (33.3)
5600m - 7:49.57 - (33.4)
6000m - 8:23.39 - (33.8)
6400m - 8:57.09 - (33.7)
6800m - 9:31.12 - (34.0)
7200m - 10:05.31 - (34.1)
7600m - 10:39.56 - (34.2)
8000m - 11:13.93 - (34.3)
8400m - 11:48.61 - (34.6)
8800m - 12:23.43 - (34.8)
9200m - 12:58.23 - (34.8)
9600m - 13:32.93 - (34.7)
10000m - 14:07.61 - (34.6)
48.08 0
20 24 Hiroki  ABE JPN JPN 14:16.96400m - 37.47 - (37.4)
800m - 1:11.50 - (34.0)
1200m - 1:45.86 - (34.3)
1600m - 2:20.54 - (34.6)
2000m - 2:54.52 - (33.9)
2400m - 3:28.51 - (33.9)
2800m - 4:02.30 - (33.7)
3200m - 4:36.09 - (33.7)
3600m - 5:10.27 - (34.1)
4000m - 5:44.40 - (34.1)
4400m - 6:18.40 - (34.0)
4800m - 6:52.32 - (33.9)
5200m - 7:26.24 - (33.9)
5600m - 8:00.28 - (34.0)
6000m - 8:34.33 - (34.0)
6400m - 9:08.43 - (34.1)
6800m - 9:42.70 - (34.2)
7200m - 10:17.38 - (34.6)
7600m - 10:52.19 - (34.8)
8000m - 11:27.29 - (35.1)
8400m - 12:01.48 - (34.1)
8800m - 12:35.61 - (34.1)
9200m - 13:09.39 - (33.7)
9600m - 13:43.33 - (33.9)
10000m - 14:16.96 - (33.6)
57.43 0
21 23 Luca  STEFANI ITA ITA 14:17.68400m - 35.56 - (35.5)
800m - 1:08.26 - (32.7)
1200m - 1:41.31 - (33.0)
1600m - 2:14.39 - (33.0)
2000m - 2:47.14 - (32.7)
2400m - 3:20.40 - (33.2)
2800m - 3:53.37 - (32.9)
3200m - 4:26.77 - (33.4)
3600m - 4:59.77 - (33.0)
4000m - 5:33.47 - (33.7)
4400m - 6:06.55 - (33.0)
4800m - 6:40.28 - (33.7)
5200m - 7:14.32 - (34.0)
5600m - 7:49.03 - (34.7)
6000m - 8:24.12 - (35.0)
6400m - 8:59.62 - (35.5)
6800m - 9:34.84 - (35.2)
7200m - 10:10.43 - (35.5)
7600m - 10:46.15 - (35.7)
8000m - 11:21.94 - (35.7)
8400m - 11:57.64 - (35.7)
8800m - 12:33.60 - (35.9)
9200m - 13:09.18 - (35.5)
9600m - 13:43.71 - (34.5)
10000m - 14:17.68 - (33.9)
58.15 0
22 8 Pavel  KULMA CZE CZE 14:18.05400m - 36.89 - (36.8)
800m - 1:09.88 - (32.9)
1200m - 1:43.15 - (33.2)
1600m - 2:17.13 - (33.9)
2000m - 2:50.61 - (33.4)
2400m - 3:24.47 - (33.8)
2800m - 3:58.19 - (33.7)
3200m - 4:32.09 - (33.9)
3600m - 5:05.99 - (33.9)
4000m - 5:40.23 - (34.2)
4400m - 6:14.52 - (34.2)
4800m - 6:48.91 - (34.3)
5200m - 7:23.41 - (34.5)
5600m - 7:57.97 - (34.5)
6000m - 8:32.22 - (34.2)
6400m - 9:06.72 - (34.5)
6800m - 9:41.16 - (34.4)
7200m - 10:15.56 - (34.4)
7600m - 10:49.92 - (34.3)
8000m - 11:24.82 - (34.9)
8400m - 11:59.65 - (34.8)
8800m - 12:34.72 - (35.0)
9200m - 13:09.55 - (34.8)
9600m - 13:44.15 - (34.6)
10000m - 14:18.05 - (33.9)
58.52 0